Regional Weather Roundup
Issued by NWS

Home | Current Version | Previous Version | Text Only | Print | Product List | Glossary Off
Versions: 1 2 3 4 5 6 7 8 9 10 11 12 13 14 15 16 17 18 19 20 21 22 23 24 25 26 27 28 29 30 31 32 33 34 35 36 37 38 39 40 41 42 43 44 45 46 47 48 49 50

000
ASUS43 KBIS 200310
RWRND

NORTH DAKOTA REGIONAL WEATHER ROUNDUP
NATIONAL WEATHER SERVICE BISMARCK ND
1000 PM CDT SAT AUG 19 2017

NOTE: "FAIR" INDICATES FEW OR NO CLOUDS BELOW 12,000 FEET WITH NO
SIGNIFICANT WEATHER AND/OR OBSTRUCTIONS TO VISIBILITY.


NDZ001>003-009>011-017-200400-
NORTHWEST NORTH DAKOTA

CITY           SKY/WX    TMP DP  RH WIND       PRES   REMARKS
WILLISTON      CLEAR     67  41  38 NW9       29.92R
MINOT          CLEAR     71  47  42 NW16      29.83R
MINOT AFB      CLEAR     69  47  44 NW14      29.82R
$$

NDZ018>021-031>035-040>046-200400-
SOUTHWEST NORTH DAKOTA

CITY           SKY/WX    TMP DP  RH WIND       PRES   REMARKS
BISMARCK       PTCLDY    76  55  48 NW12      29.82R
DICKINSON      PTCLDY    69  46  43 N12       29.91R
GARRISON         N/A     67  51  56 NW13      29.85R
HETTINGER ARPT CLOUDY    68  47  46 N8        29.92R
$$

NDZ004>008-012>016-024-026-027-054-200400-
NORTHEAST NORTH DAKOTA

CITY           SKY/WX    TMP DP  RH WIND       PRES   REMARKS
GRAND FORKS    PTCLDY    75  64  68 S16       29.71S
GRND FRKS AFB  CLEAR     72  65  78 S9        29.72S
DEVILS LAKE    CLEAR     74  64  71 W12       29.74R
$$

NDZ022-023-025-028>030-036>039-047>053-200400-
SOUTHEAST NORTH DAKOTA

CITY           SKY/WX    TMP DP  RH WIND       PRES   REMARKS
FARGO          MOCLDY    74  64  71 S16G22    29.77R
JAMESTOWN      PTCLDY    70  63  78 S10       29.76R
$$




USA.gov is the U.S. government's official web portal to all federal, state and local government web resources and services.